<?xml version="1.0" encoding="UTF-8" standalone="no" ?>
<gpx xmlns="http://www.topografix.com/GPX/1/1" xmlns:xsi="http://www.w3.org/2001/XMLSchema-instance" xsi:schemaLocation="http://www.topografix.com/GPX/1/1 http://www.topografix.com/GPX/1/1/gpx.xsd" version="1.1" creator="VisuGPX - https://www.visugpx.com">
  <metadata>
    <name>Villers en Fraises - 17-05-2026 - 5km300 </name>
  </metadata>
  <trk>
    <name><![CDATA[Villers-en-Fraise 2026 - 5,300 km-23151751]]></name>
    <extensions>
      <line xmlns="http://www.topografix.com/GPX/gpx_style/0/2">
        <color>00FF00</color>
        <opacity>1</opacity>
        <width>4</width>
          <extensions>
            <sens>1</sens>
          </extensions>
      </line>
    </extensions>
    <trkseg>
      <trkpt lat="50.18931" lon="4.47236">
        <ele>255</ele>
        <time>2026-01-09T16:44:46Z</time>
      </trkpt>
      <trkpt lat="50.18942" lon="4.47251">
        <ele>256</ele>
        <time>2026-01-09T16:45:05Z</time>
      </trkpt>
      <trkpt lat="50.18968" lon="4.47292">
        <ele>256</ele>
        <time>2026-01-09T16:45:55Z</time>
      </trkpt>
      <trkpt lat="50.18972" lon="4.47309">
        <ele>256</ele>
        <time>2026-01-09T16:46:10Z</time>
      </trkpt>
      <trkpt lat="50.18957" lon="4.47321">
        <ele>256</ele>
        <time>2026-01-09T16:46:33Z</time>
      </trkpt>
      <trkpt lat="50.18926" lon="4.47349">
        <ele>255</ele>
        <time>2026-01-09T16:47:21Z</time>
      </trkpt>
      <trkpt lat="50.18888" lon="4.47387">
        <ele>253</ele>
        <time>2026-01-09T16:48:21Z</time>
      </trkpt>
      <trkpt lat="50.18873" lon="4.47413">
        <ele>252</ele>
        <time>2026-01-09T16:48:51Z</time>
      </trkpt>
      <trkpt lat="50.18855" lon="4.47486">
        <ele>247</ele>
        <time>2026-01-09T16:49:57Z</time>
      </trkpt>
      <trkpt lat="50.18844" lon="4.47512">
        <ele>245</ele>
        <time>2026-01-09T16:50:24Z</time>
      </trkpt>
      <trkpt lat="50.18812" lon="4.47547">
        <ele>242</ele>
        <time>2026-01-09T16:51:16Z</time>
      </trkpt>
      <trkpt lat="50.18795" lon="4.4758">
        <ele>241</ele>
        <time>2026-01-09T16:51:52Z</time>
      </trkpt>
      <trkpt lat="50.18824" lon="4.47623">
        <ele>240</ele>
        <time>2026-01-09T16:52:46Z</time>
      </trkpt>
      <trkpt lat="50.18855" lon="4.47701">
        <ele>241</ele>
        <time>2026-01-09T16:54:04Z</time>
      </trkpt>
      <trkpt lat="50.18863" lon="4.47727">
        <ele>242</ele>
        <time>2026-01-09T16:54:29Z</time>
      </trkpt>
      <trkpt lat="50.18865" lon="4.47739">
        <ele>242</ele>
        <time>2026-01-09T16:54:39Z</time>
      </trkpt>
      <trkpt lat="50.18867" lon="4.47755">
        <ele>242</ele>
        <time>2026-01-09T16:54:53Z</time>
      </trkpt>
      <trkpt lat="50.18868" lon="4.47776">
        <ele>242</ele>
        <time>2026-01-09T16:55:11Z</time>
      </trkpt>
      <trkpt lat="50.18869" lon="4.47829">
        <ele>243</ele>
        <time>2026-01-09T16:55:57Z</time>
      </trkpt>
      <trkpt lat="50.18854" lon="4.47839">
        <ele>242</ele>
        <time>2026-01-09T16:56:18Z</time>
      </trkpt>
      <trkpt lat="50.18846" lon="4.47851">
        <ele>242</ele>
        <time>2026-01-09T16:56:33Z</time>
      </trkpt>
      <trkpt lat="50.18843" lon="4.47914">
        <ele>244</ele>
        <time>2026-01-09T16:57:27Z</time>
      </trkpt>
      <trkpt lat="50.1883" lon="4.47929">
        <ele>243</ele>
        <time>2026-01-09T16:57:49Z</time>
      </trkpt>
      <trkpt lat="50.18768" lon="4.47953">
        <ele>245</ele>
        <time>2026-01-09T16:59:14Z</time>
      </trkpt>
      <trkpt lat="50.18674" lon="4.47979">
        <ele>248</ele>
        <time>2026-01-09T17:01:21Z</time>
      </trkpt>
      <trkpt lat="50.18572" lon="4.48016">
        <ele>253</ele>
        <time>2026-01-09T17:03:41Z</time>
      </trkpt>
      <trkpt lat="50.18546" lon="4.48">
        <ele>253</ele>
        <time>2026-01-09T17:04:18Z</time>
      </trkpt>
      <trkpt lat="50.18509" lon="4.47986">
        <ele>253</ele>
        <time>2026-01-09T17:05:09Z</time>
      </trkpt>
      <trkpt lat="50.18488" lon="4.47964">
        <ele>253</ele>
        <time>2026-01-09T17:05:43Z</time>
      </trkpt>
      <trkpt lat="50.18473" lon="4.47959">
        <ele>252</ele>
        <time>2026-01-09T17:06:03Z</time>
      </trkpt>
      <trkpt lat="50.18457" lon="4.48003">
        <ele>250</ele>
        <time>2026-01-09T17:06:47Z</time>
      </trkpt>
      <trkpt lat="50.18476" lon="4.48087">
        <ele>252</ele>
        <time>2026-01-09T17:08:03Z</time>
      </trkpt>
      <trkpt lat="50.1848" lon="4.48141">
        <ele>252</ele>
        <time>2026-01-09T17:08:49Z</time>
      </trkpt>
      <trkpt lat="50.18486" lon="4.4821">
        <ele>251</ele>
        <time>2026-01-09T17:09:49Z</time>
      </trkpt>
      <trkpt lat="50.18516" lon="4.48365">
        <ele>253</ele>
        <time>2026-01-09T17:12:07Z</time>
      </trkpt>
      <trkpt lat="50.18525" lon="4.48507">
        <ele>252</ele>
        <time>2026-01-09T17:14:09Z</time>
      </trkpt>
      <trkpt lat="50.18551" lon="4.48613">
        <ele>257</ele>
        <time>2026-01-09T17:15:46Z</time>
      </trkpt>
      <trkpt lat="50.18555" lon="4.48844">
        <ele>256</ele>
        <time>2026-01-09T17:19:04Z</time>
      </trkpt>
      <trkpt lat="50.18561" lon="4.48981">
        <ele>257</ele>
        <time>2026-01-09T17:21:01Z</time>
      </trkpt>
      <trkpt lat="50.18592" lon="4.49038">
        <ele>259</ele>
        <time>2026-01-09T17:22:05Z</time>
      </trkpt>
      <trkpt lat="50.18598" lon="4.49022">
        <ele>259</ele>
        <time>2026-01-09T17:22:21Z</time>
      </trkpt>
      <trkpt lat="50.18665" lon="4.48966">
        <ele>257</ele>
        <time>2026-01-09T17:24:02Z</time>
      </trkpt>
      <trkpt lat="50.18801" lon="4.48914">
        <ele>251</ele>
        <time>2026-01-09T17:27:09Z</time>
      </trkpt>
      <trkpt lat="50.18836" lon="4.48859">
        <ele>249</ele>
        <time>2026-01-09T17:28:15Z</time>
      </trkpt>
      <trkpt lat="50.18859" lon="4.48799">
        <ele>249</ele>
        <time>2026-01-09T17:29:15Z</time>
      </trkpt>
      <trkpt lat="50.18873" lon="4.48762">
        <ele>248</ele>
        <time>2026-01-09T17:29:52Z</time>
      </trkpt>
      <trkpt lat="50.18894" lon="4.48719">
        <ele>248</ele>
        <time>2026-01-09T17:30:38Z</time>
      </trkpt>
      <trkpt lat="50.18901" lon="4.48705">
        <ele>248</ele>
        <time>2026-01-09T17:30:53Z</time>
      </trkpt>
      <trkpt lat="50.18942" lon="4.48631">
        <ele>250</ele>
        <time>2026-01-09T17:32:17Z</time>
      </trkpt>
      <trkpt lat="50.18952" lon="4.48609">
        <ele>251</ele>
        <time>2026-01-09T17:32:40Z</time>
      </trkpt>
      <trkpt lat="50.18981" lon="4.48559">
        <ele>254</ele>
        <time>2026-01-09T17:33:37Z</time>
      </trkpt>
      <trkpt lat="50.18997" lon="4.48513">
        <ele>256</ele>
        <time>2026-01-09T17:34:22Z</time>
      </trkpt>
      <trkpt lat="50.19006" lon="4.48493">
        <ele>257</ele>
        <time>2026-01-09T17:34:43Z</time>
      </trkpt>
      <trkpt lat="50.18992" lon="4.48461">
        <ele>257</ele>
        <time>2026-01-09T17:35:16Z</time>
      </trkpt>
      <trkpt lat="50.18971" lon="4.48365">
        <ele>257</ele>
        <time>2026-01-09T17:36:43Z</time>
      </trkpt>
      <trkpt lat="50.18979" lon="4.48348">
        <ele>258</ele>
        <time>2026-01-09T17:37:01Z</time>
      </trkpt>
      <trkpt lat="50.18985" lon="4.48301">
        <ele>258</ele>
        <time>2026-01-09T17:37:42Z</time>
      </trkpt>
      <trkpt lat="50.19" lon="4.48222">
        <ele>257</ele>
        <time>2026-01-09T17:38:52Z</time>
      </trkpt>
      <trkpt lat="50.19" lon="4.48211">
        <ele>257</ele>
        <time>2026-01-09T17:39:01Z</time>
      </trkpt>
      <trkpt lat="50.19" lon="4.482">
        <ele>257</ele>
        <time>2026-01-09T17:39:11Z</time>
      </trkpt>
      <trkpt lat="50.1901" lon="4.48209">
        <ele>257</ele>
        <time>2026-01-09T17:39:26Z</time>
      </trkpt>
      <trkpt lat="50.19034" lon="4.48194">
        <ele>257</ele>
        <time>2026-01-09T17:40:01Z</time>
      </trkpt>
      <trkpt lat="50.19067" lon="4.482">
        <ele>256</ele>
        <time>2026-01-09T17:40:45Z</time>
      </trkpt>
      <trkpt lat="50.19119" lon="4.48199">
        <ele>258</ele>
        <time>2026-01-09T17:41:54Z</time>
      </trkpt>
      <trkpt lat="50.19152" lon="4.48187">
        <ele>259</ele>
        <time>2026-01-09T17:42:40Z</time>
      </trkpt>
      <trkpt lat="50.19214" lon="4.48143">
        <ele>265</ele>
        <time>2026-01-09T17:44:11Z</time>
      </trkpt>
      <trkpt lat="50.19262" lon="4.48135">
        <ele>270</ele>
        <time>2026-01-09T17:45:15Z</time>
      </trkpt>
      <trkpt lat="50.19354" lon="4.48148">
        <ele>272</ele>
        <time>2026-01-09T17:47:18Z</time>
      </trkpt>
      <trkpt lat="50.1945" lon="4.48167">
        <ele>273</ele>
        <time>2026-01-09T17:49:27Z</time>
      </trkpt>
      <trkpt lat="50.19496" lon="4.48184">
        <ele>274</ele>
        <time>2026-01-09T17:50:30Z</time>
      </trkpt>
      <trkpt lat="50.19535" lon="4.48196">
        <ele>276</ele>
        <time>2026-01-09T17:51:24Z</time>
      </trkpt>
      <trkpt lat="50.19543" lon="4.48198">
        <ele>276</ele>
        <time>2026-01-09T17:51:34Z</time>
      </trkpt>
      <trkpt lat="50.19562" lon="4.48197">
        <ele>276</ele>
        <time>2026-01-09T17:52:00Z</time>
      </trkpt>
      <trkpt lat="50.19644" lon="4.48155">
        <ele>278</ele>
        <time>2026-01-09T17:53:55Z</time>
      </trkpt>
      <trkpt lat="50.19659" lon="4.48094">
        <ele>278</ele>
        <time>2026-01-09T17:54:51Z</time>
      </trkpt>
      <trkpt lat="50.19684" lon="4.4798">
        <ele>279</ele>
        <time>2026-01-09T17:56:34Z</time>
      </trkpt>
      <trkpt lat="50.19687" lon="4.47966">
        <ele>279</ele>
        <time>2026-01-09T17:56:46Z</time>
      </trkpt>
      <trkpt lat="50.19688" lon="4.4795">
        <ele>279</ele>
        <time>2026-01-09T17:57:00Z</time>
      </trkpt>
      <trkpt lat="50.19683" lon="4.47706">
        <ele>282</ele>
        <time>2026-01-09T18:00:29Z</time>
      </trkpt>
      <trkpt lat="50.19681" lon="4.47682">
        <ele>283</ele>
        <time>2026-01-09T18:00:49Z</time>
      </trkpt>
      <trkpt lat="50.19672" lon="4.47632">
        <ele>283</ele>
        <time>2026-01-09T18:01:34Z</time>
      </trkpt>
      <trkpt lat="50.19663" lon="4.47564">
        <ele>283</ele>
        <time>2026-01-09T18:02:33Z</time>
      </trkpt>
      <trkpt lat="50.1965" lon="4.4738">
        <ele>284</ele>
        <time>2026-01-09T18:05:11Z</time>
      </trkpt>
      <trkpt lat="50.19647" lon="4.47329">
        <ele>284</ele>
        <time>2026-01-09T18:05:55Z</time>
      </trkpt>
      <trkpt lat="50.19642" lon="4.47242">
        <ele>283</ele>
        <time>2026-01-09T18:07:09Z</time>
      </trkpt>
      <trkpt lat="50.1961" lon="4.46826">
        <ele>283</ele>
        <time>2026-01-09T18:13:07Z</time>
      </trkpt>
      <trkpt lat="50.19524" lon="4.4689">
        <ele>284</ele>
        <time>2026-01-09T18:15:14Z</time>
      </trkpt>
      <trkpt lat="50.19494" lon="4.46925">
        <ele>285</ele>
        <time>2026-01-09T18:16:04Z</time>
      </trkpt>
      <trkpt lat="50.19429" lon="4.47022">
        <ele>284</ele>
        <time>2026-01-09T18:18:04Z</time>
      </trkpt>
      <trkpt lat="50.19392" lon="4.47053">
        <ele>282</ele>
        <time>2026-01-09T18:19:00Z</time>
      </trkpt>
      <trkpt lat="50.19239" lon="4.47208">
        <ele>273</ele>
        <time>2026-01-09T18:23:04Z</time>
      </trkpt>
      <trkpt lat="50.19064" lon="4.47251">
        <ele>262</ele>
        <time>2026-01-09T18:27:00Z</time>
      </trkpt>
      <trkpt lat="50.1906" lon="4.47252">
        <ele>261</ele>
        <time>2026-01-09T18:27:06Z</time>
      </trkpt>
      <trkpt lat="50.18996" lon="4.47292">
        <ele>257</ele>
        <time>2026-01-09T18:28:38Z</time>
      </trkpt>
      <trkpt lat="50.18972" lon="4.47309">
        <ele>256</ele>
        <time>2026-01-09T18:29:13Z</time>
      </trkpt>
      <trkpt lat="50.18968" lon="4.47292">
        <ele>256</ele>
        <time>2026-01-09T18:29:28Z</time>
      </trkpt>
      <trkpt lat="50.18942" lon="4.47251">
        <ele>256</ele>
        <time>2026-01-09T18:30:18Z</time>
      </trkpt>
      <trkpt lat="50.18931" lon="4.47236">
        <ele>255</ele>
        <time>2026-01-09T18:30:37Z</time>
      </trkpt>
      <trkpt lat="50.18925" lon="4.47229">
        <ele>255</ele>
        <time>2026-01-09T18:30:47Z</time>
      </trkpt>
    </trkseg>
  </trk>
</gpx>